This is the latest recevied weather packets stored in our database for station/object W8AN. If no packets are shown the sender has not sent any weather packets the latest 10 day(s).
| Time | Temp. | Humidity | Pressure | Rain* | Wind** | Luminosity | Snow |
|---|---|---|---|---|---|---|---|
| 1777834388 | 16.67° C | 37% | 4267.9 hPa | 0 mm | - | 673 W/m² | - |
| 1777834088 | 16.11° C | 35% | 4268 hPa | 0 mm | - | 668 W/m² | - |
| 1777833784 | 16.11° C | 36% | 4267.9 hPa | 0 mm | - | 657 W/m² | - |
| 1777833480 | 16.11° C | 35% | 4268 hPa | 0 mm | - | 716 W/m² | - |
| 1777833178 | 16.11° C | 34% | 4268 hPa | 0 mm | - | 709 W/m² | - |
| 1777832875 | 16.11° C | 37% | 4268.3 hPa | 0 mm | - | 683 W/m² | - |
| 1777832574 | 15.56° C | 35% | 4268.2 hPa | 0 mm | - | 683 W/m² | - |
| 1777832270 | 15.56° C | 36% | 4268.3 hPa | 0 mm | - | 709 W/m² | - |
| 1777831968 | 16.11° C | 36% | 4268.6 hPa | 0 mm | - | 729 W/m² | - |
| 1777831664 | 16.11° C | 33% | 4268.3 hPa | 0 mm | - | 354 W/m² | - |
| 1777831362 | 16.11° C | 35% | 4268.5 hPa | 0 mm | - | 753 W/m² | - |
| 1777831058 | 16.11° C | 36% | 4268.4 hPa | 0 mm | - | 734 W/m² | - |
| 1777830757 | 16.11° C | 36% | 4268.6 hPa | 0 mm | - | 711 W/m² | - |
| 1777830452 | 15.56° C | 34% | 4268.6 hPa | 0 mm | - | 727 W/m² | - |
| 1777830151 | 16.11° C | 38% | 4268.7 hPa | 0 mm | - | 206 W/m² | - |
| 1777829850 | 16.11° C | 39% | 4268.9 hPa | 0 mm | - | 772 W/m² | - |
| 1777829547 | 15.56° C | 35% | 4268.7 hPa | 0 mm | - | 595 W/m² | - |
| 1777829244 | 15.56° C | 37% | 4269 hPa | 0 mm | - | 441 W/m² | - |
| 1777828941 | 15.56° C | 38% | 4268.8 hPa | 0 mm | - | 727 W/m² | - |
| 1777828637 | 15.56° C | 37% | 4268.9 hPa | 0 mm | - | 718 W/m² | - |
| 1777828335 | 15.56° C | 38% | 4269 hPa | 0 mm | - | 753 W/m² | - |
| 1777828032 | 15.56° C | 37% | 4269.2 hPa | 0 mm | - | 751 W/m² | - |
| 1777827729 | 15.56° C | 39% | 4269 hPa | 0 mm | - | 721 W/m² | - |
| 1777827426 | 15.56° C | 39% | 4269.2 hPa | 0 mm | - | 729 W/m² | - |
| 1777827122 | 15.56° C | 44% | 4269.3 hPa | 0 mm | - | 731 W/m² | - |
* Rain latest hour (hover to see other rain measurements)
** Current wind speed in m/s (hover to see current wind gust speed)